User: anonymous   Login
Location: Newark
(23.1300°N, 73.6109°E)
Time: 11:23:59
(UTC+00:00)
Language:

RS-15 - Orbit

View from above orbital plane
View from above orbital plane
View from above satellite
View from above satellite

Ground track
Ground track

The orbit data is extracted from the following two-line orbital elements,

1 23439U 94085A   20190.85121390 -.00000054 +00000-0 -33323-3 0  9996
2 23439 064.8131 211.6470 0149626 038.0216 323.1158 11.27568859051433
Epoch (UTC): 08 July 2020 20:25:44
Eccentricity: 0.0149626
inclination: 64.8131°
perigee height: 1896 km
apogee height: 2148 km
right ascension of ascending node: 211.6470°
argument of perigee: 38.0216°
revolutions per day: 11.27568859
mean anomaly at epoch: 323.1158°
orbit number at epoch: 5143

The dashed part of the orbit path shows where the satellite is in the earth's shadow,  

DLR